EDT,Max TemperatureF,Mean TemperatureF,Min TemperatureF,Max Dew PointF,MeanDew PointF,Min DewpointF,Max Humidity, Mean Humidity, Min Humidity, Max Sea Level PressureIn, Mean Sea Level PressureIn, Min Sea Level PressureIn, Max VisibilityMiles, Mean VisibilityMiles, Min VisibilityMiles, Max Wind SpeedMPH, Mean Wind SpeedMPH, Max Gust SpeedMPH,PrecipitationIn, CloudCover, Events, WindDirDegrees
2013-4-1,74,64,55,59,54,37,100,82,26,29.95,29.85,29.82,10,9,2,14,6,24,0.47,6,Rain,273
2013-4-2,64,52,40,39,33,28,84,49,29,30.17,30.09,29.98,10,10,10,15,7,17,0.00,1,,352
2013-4-3,61,54,46,40,26,18,73,38,23,30.29,30.21,30.14,10,8,2,16,8,24,0.00,3,Rain,45
2013-4-4,48,46,41,41,38,30,95,84,45,30.33,30.10,29.90,10,8,2,17,9,26,0.82,7,Rain,57
2013-4-5,62,52,41,47,42,39,100,86,52,30.03,29.93,29.88,10,10,9,12,8,17,0.01,6,,352
2013-4-6,65,52,39,42,36,30,96,56,29,30.28,30.19,30.04,10,10,9,15,4,18,0.00,0,Rain,82
2013-4-7,73,54,36,52,41,35,95,58,30,30.29,30.21,30.12,10,10,10,12,5,20,0.00,0,,172
2013-4-8,79,66,54,57,53,50,100,66,36,30.21,30.14,30.08,10,10,10,16,8,24,0.00,2,,228
2013-4-9,84,70,57,61,58,56,95,64,40,30.21,30.15,30.09,10,10,10,14,8,18,0.00,0,,238
2013-4-10,84,72,59,61,59,55,94,63,37,30.14,30.07,29.97,10,9,6,15,10,17,0.00,0,,229
2013-4-11,83,72,62,70,63,57,94,74,42,30.02,29.91,29.82,10,10,2,17,11,26,0.16,5,Rain-Thunderstorm,217
2013-4-12,81,74,67,68,65,44,94,83,43,29.83,29.75,29.65,10,9,1,23,11,29,0.76,6,Rain-Thunderstorm,217
2013-4-13,77,64,52,51,42,38,76,46,27,30.03,29.93,29.80,10,10,10,15,5,21,0.00,0,,299
2013-4-14,79,62,46,55,48,41,96,59,26,30.11,30.06,30.03,10,10,10,13,4,,0.00,1,Rain,198
2013-4-15,72,66,58,59,57,55,94,76,58,30.21,30.06,29.99,10,10,10,13,6,16,0.00,6,Rain,91
2013-4-16,77,66,56,62,59,56,100,87,48,30.30,30.25,30.21,10,7,2,5,3,,0.00,6,,65
2013-4-17,82,68,55,63,60,55,100,74,51,30.26,30.20,30.12,10,10,7,13,3,17,0.01,2,,236
2013-4-18,79,68,57,64,60,56,97,72,49,30.21,30.14,30.06,10,10,10,13,5,20,0.00,2,,170
2013-4-19,85,75,66,68,66,61,94,85,52,30.05,29.90,29.78,10,9,1,26,10,40,0.56,7,Rain-Thunderstorm,218
2013-4-20,63,56,46,64,48,34,94,71,33,30.28,30.02,29.86,10,10,3,23,12,33,0.13,5,Rain,303
2013-4-21,64,50,37,45,41,37,96,68,42,30.46,30.40,30.29,10,10,10,16,5,24,0.00,1,,74
2013-4-22,62,50,38,41,38,34,83,63,41,30.46,30.35,30.24,10,10,10,20,11,24,0.00,4,,47
2013-4-23,68,58,48,50,47,45,100,71,49,30.23,30.18,30.12,10,10,10,14,9,,0.00,5,,32
2013-4-24,82,66,51,54,52,48,100,64,37,30.16,30.10,30.01,10,10,9,18,7,24,0.00,2,,227
2013-4-25,75,68,57,54,45,39,88,48,34,30.27,30.21,30.15,10,10,10,14,8,,0.00,3,,50
2013-4-26,75,64,53,55,46,36,100,63,25,30.43,30.34,30.28,10,10,7,15,4,,0.00,4,,87
2013-4-27,,,,,,,,,,,,,10,10,10,9,4,,0.00,7,,149
2013-4-28,,,,,,,,,,,,,10,8,2,9,4,,0.00,8,,110
2013-4-29,73,66,60,63,61,59,100,83,61,30.05,30.02,29.95,10,6,1,10,3,,1.01,8,Rain,193
2013-4-30,75,68,60,63,60,55,100,81,60,30.15,30.09,30.02,10,9,3,16,6,,0.00,6,Rain,48